SMILE

Last updated on Fri Jun 19 2026 17:10:09 GMT+0000 (Coordinated Universal Time)

1 69123U 26109A 26158.38327019 -.00000041 00000+0 -36778-3 0 9994 2 69123 69.9787 209.3069 3310191 288.5544 45.7342 7.54049028 2480
UTC large
Height (km)
Speed (km/s)
/
Latitude / Longitude
Inclination (degrees)
Orbital Period (minutes)
Azimuth
Elevation
Range (km)
Doppler Factor

Next 0 passes for location: London (51.5072 / 0.1276)

No passes found over London.
SMILE